,,PA_Meas_PMT16A,,PR_Meas_QMR101_102,,RH_Meas_QMH101,,SR_Meas_QMS101,,TA_Meas_QMH101,,GenWind,,GenWind,
time,status,PA,status,PR,status,RH,status,SR,status,TA,status,DirAvg,status,SpdAvg,
2015-09-13, 07:09:04,VALID,919.128,VALID,0,VALID,79.6799,VALID,81.4404,VALID,20.1724,VALID,158,VALID,0,
2015-09-13, 07:10:04,VALID,919.129,VALID,0,VALID,79.4512,VALID,83.3743,VALID,20.1724,VALID,158,VALID,0,
2015-09-13, 07:11:04,VALID,919.175,VALID,0,VALID,78.9481,VALID,86.3827,VALID,20.1919,VALID,158,VALID,0,
2015-09-13, 07:12:04,VALID,919.192,VALID,0,VALID,79.253,VALID,88.7464,VALID,20.2114,VALID,158,VALID,0,
2015-09-13, 07:13:04,VALID,919.212,VALID,0,VALID,78.6279,VALID,91.5399,VALID,20.2699,VALID,158,VALID,0,
2015-09-13, 07:14:04,VALID,919.221,VALID,0,VALID,77.5683,VALID,95.5152,VALID,20.3674,VALID,157,VALID,0,
2015-09-13, 07:15:04,VALID,919.22,VALID,0,VALID,77.6445,VALID,95.5152,VALID,20.4454,VALID,157,VALID,0,
2015-09-13, 07:16:04,VALID,919.204,VALID,0,VALID,78.3763,VALID,97.5566,VALID,20.543,VALID,157,VALID,0,
2015-09-13, 07:17:04,VALID,919.219,VALID,0,VALID,77.8351,VALID,100.35,VALID,20.5999,VALID,157,VALID,0,
2015-09-13, 07:18:04,VALID,919.208,VALID,0,VALID,77.9571,VALID,102.606,VALID,20.6795,VALID,157,VALID,0,
2015-09-13, 07:19:04,VALID,919.197,VALID,0,VALID,77.6979,VALID,104.11,VALID,20.6975,VALID,157,VALID,0,
2015-09-13, 07:20:04,VALID,919.263,VALID,0,VALID,75.5404,VALID,107.656,VALID,20.6975,VALID,157,VALID,0,
2015-09-13, 07:21:04,VALID,919.275,VALID,0,VALID,76.8593,VALID,110.45,VALID,20.7966,VALID,158,VALID,0,
2015-09-13, 07:22:04,VALID,919.293,VALID,0,VALID,77.7741,VALID,116.144,VALID,20.8145,VALID,158,VALID,0,
2015-09-13, 07:23:04,VALID,919.353,VALID,0,VALID,76.623,VALID,119.582,VALID,20.8746,VALID,158,VALID,0,
2015-09-13, 07:24:04,VALID,919.365,VALID,0,VALID,76.0817,VALID,122.268,VALID,20.8925,VALID,158,VALID,0,
2015-09-13, 07:25:04,VALID,919.387,VALID,0,VALID,77.3548,VALID,126.781,VALID,20.9511,VALID,158,VALID,0,
2015-09-13, 07:26:04,VALID,919.402,VALID,0,VALID,76.9736,VALID,129.896,VALID,20.9706,VALID,158,VALID,0,
2015-09-13, 07:27:04,VALID,919.384,VALID,0,VALID,75.8149,VALID,134.624,VALID,21.0096,VALID,173,VALID,0,
2015-09-13, 07:28:04,VALID,919.37,VALID,0,VALID,76.7297,VALID,136.665,VALID,21.047,VALID,173,VALID,0,
2015-09-13, 07:29:04,VALID,919.366,VALID,0,VALID,74.7247,VALID,139.029,VALID,21.1055,VALID,175,VALID,0,
2015-09-13, 07:30:04,VALID,919.356,VALID,0,VALID,75.5862,VALID,141.393,VALID,21.2242,VALID,175,VALID,0,
2015-09-13, 07:31:04,VALID,919.353,VALID,0,VALID,74.5799,VALID,142.574,VALID,21.2405,VALID,175,VALID,0,
2015-09-13, 07:32:04,VALID,919.356,VALID,0,VALID,75.5709,VALID,142.467,VALID,21.3608,VALID,174,VALID,0,
2015-09-13, 07:33:04,VALID,919.375,VALID,0,VALID,75.327,VALID,143.649,VALID,21.3169,VALID,173,VALID,0,
2015-09-13, 07:34:04,VALID,919.381,VALID,0,VALID,74.0462,VALID,147.624,VALID,21.3981,VALID,173,VALID,0,
2015-09-13, 07:35:04,VALID,919.439,VALID,0,VALID,75.3117,VALID,150.847,VALID,21.455,VALID,173,VALID,0,
2015-09-13, 07:36:04,VALID,919.418,VALID,0,VALID,75.0449,VALID,152.566,VALID,21.5559,VALID,165,VALID,0,
2015-09-13, 07:37:04,VALID,919.476,VALID,0,VALID,75.0144,VALID,153.211,VALID,21.6128,VALID,175,VALID,0,
2015-09-13, 07:38:04,VALID,919.521,VALID,0,VALID,76.318,VALID,151.599,VALID,21.6144,VALID,175,VALID,0,
2015-09-13, 07:39:04,VALID,919.49,VALID,0,VALID,77.4768,VALID,149.451,VALID,21.6356,VALID,175,VALID,0,
2015-09-13, 07:40:04,VALID,919.564,VALID,0,VALID,76.8212,VALID,150.203,VALID,21.5949,VALID,175,VALID,0,
2015-09-13, 07:41:04,VALID,919.54,VALID,0,VALID,75.6395,VALID,157.294,VALID,21.5559,VALID,175,VALID,0,
2015-09-13, 07:42:04,VALID,919.582,VALID,0,VALID,76.0207,VALID,161.914,VALID,21.5168,VALID,173,VALID,0,
2015-09-13, 07:43:04,VALID,919.607,VALID,0,VALID,75.7463,VALID,167.286,VALID,21.5168,VALID,175,VALID,0,
2015-09-13, 07:44:04,VALID,919.611,VALID,0,VALID,77.5683,VALID,170.617,VALID,21.5559,VALID,175,VALID,0,
2015-09-13, 07:45:04,VALID,919.652,VALID,0,VALID,75.5785,VALID,172.765,VALID,21.5754,VALID,175,VALID,0,
2015-09-13, 07:46:04,VALID,919.619,VALID,0,VALID,76.4857,VALID,175.344,VALID,21.6534,VALID,175,VALID,0,
2015-09-13, 07:47:04,VALID,919.662,VALID,0,VALID,76.1198,VALID,182.113,VALID,21.7315,VALID,175,VALID,0,
2015-09-13, 07:48:04,VALID,919.637,VALID,0,VALID,76.4247,VALID,184.691,VALID,21.8079,VALID,175,VALID,0,
2015-09-13, 07:49:04,VALID,919.663,VALID,0,VALID,75.914,VALID,187.915,VALID,21.9054,VALID,175,VALID,0,
2015-09-13, 07:50:04,VALID,919.665,VALID,0,VALID,75.7386,VALID,192.427,VALID,21.9656,VALID,141,VALID,0,
2015-09-13, 07:51:04,VALID,919.676,VALID,0,VALID,74.8162,VALID,195.221,VALID,21.9623,VALID,143,VALID,0,
2015-09-13, 07:52:04,VALID,919.702,VALID,0,VALID,74.4045,VALID,199.196,VALID,22.0827,VALID,143,VALID,0,
2015-09-13, 07:53:04,VALID,919.714,VALID,0,VALID,72.6893,VALID,203.923,VALID,22.1022,VALID,141,VALID,0,
2015-09-13, 07:54:04,VALID,919.73,VALID,0,VALID,73.1924,VALID,207.684,VALID,22.0632,VALID,138,VALID,0,
2015-09-13, 07:55:04,VALID,919.715,VALID,0,VALID,73.9548,VALID,212.304,VALID,22.1217,VALID,138,VALID,0,
2015-09-13, 07:56:04,VALID,919.715,VALID,0,VALID,74.7476,VALID,215.097,VALID,22.1786,VALID,138,VALID,0,
2015-09-13, 07:57:04,VALID,919.683,VALID,0,VALID,75.1821,VALID,220.684,VALID,22.2957,VALID,138,VALID,0,
2015-09-13, 07:58:04,VALID,919.704,VALID,0,VALID,73.4897,VALID,222.081,VALID,22.3933,VALID,107,VALID,0.00859375,
2015-09-13, 07:59:04,VALID,919.698,VALID,0,VALID,76.2494,VALID,228.742,VALID,22.3347,VALID,105,VALID,0,
2015-09-13, 08:00:04,VALID,919.72,VALID,0,VALID,78.2391,VALID,232.073,VALID,22.2762,VALID,105,VALID,0,
2015-09-13, 08:01:04,VALID,919.724,VALID,0,VALID,78.6584,VALID,236.8,VALID,22.2176,VALID,105,VALID,0,
2015-09-13, 08:02:04,VALID,919.757,VALID,0,VALID,78.8185,VALID,239.057,VALID,22.2567,VALID,105,VALID,0,
2015-09-13, 08:03:04,VALID,919.802,VALID,0,VALID,78.3916,VALID,237.338,VALID,22.2745,VALID,105,VALID,0,
2015-09-13, 08:04:04,VALID,919.829,VALID,0,VALID,77.4158,VALID,239.379,VALID,22.2567,VALID,105,VALID,0,
2015-09-13, 08:05:04,VALID,919.854,VALID,0,VALID,76.379,VALID,241.313,VALID,22.1981,VALID,105,VALID,0,
2015-09-13, 08:06:04,VALID,919.886,VALID,0,VALID,76.3714,VALID,243.139,VALID,22.1005,VALID,107,VALID,0,
2015-09-13, 08:07:04,VALID,919.898,VALID,0,VALID,77.5454,VALID,246.363,VALID,21.9835,VALID,107,VALID,0,
2015-09-13, 08:08:04,VALID,919.926,VALID,0,VALID,77.8198,VALID,251.197,VALID,22.003,VALID,107,VALID,0,
2015-09-13, 08:09:04,VALID,919.918,VALID,0,VALID,75.9902,VALID,250.983,VALID,21.9428,VALID,108,VALID,0,
2015-09-13, 08:10:04,VALID,919.98,VALID,0,VALID,76.2418,VALID,253.883,VALID,21.8664,VALID,129,VALID,0,
2015-09-13, 08:11:04,VALID,919.998,VALID,0,VALID,77.3243,VALID,244.644,VALID,21.8079,VALID,129,VALID,0,
2015-09-13, 08:12:04,VALID,920.011,VALID,0,VALID,77.149,VALID,237.123,VALID,21.8257,VALID,129,VALID,0,
2015-09-13, 08:13:04,VALID,920.029,VALID,0,VALID,76.0283,VALID,249.049,VALID,21.8469,VALID,129,VALID,0,
2015-09-13, 08:14:04,VALID,920.044,VALID,0,VALID,76.7525,VALID,253.131,VALID,21.6891,VALID,129,VALID,0,
2015-09-13, 08:15:04,VALID,920.037,VALID,0,VALID,77.9875,VALID,249.263,VALID,21.6891,VALID,129,VALID,0,
2015-09-13, 08:16:04,VALID,920.064,VALID,0,VALID,77.6064,VALID,256.677,VALID,21.6875,VALID,129,VALID,0,
2015-09-13, 08:17:04,VALID,920.037,VALID,0,VALID,77.5073,VALID,265.487,VALID,21.7282,VALID,129,VALID,0,
2015-09-13, 08:18:04,VALID,920.046,VALID,0,VALID,77.0651,VALID,269.355,VALID,21.7672,VALID,129,VALID,0,
2015-09-13, 08:19:04,VALID,920.061,VALID,0,VALID,77.4768,VALID,262.909,VALID,21.7672,VALID,129,VALID,0,
2015-09-13, 08:20:04,VALID,920.023,VALID,0,VALID,77.2633,VALID,278.38,VALID,21.8257,VALID,129,VALID,0,
2015-09-13, 08:21:04,VALID,920.025,VALID,0,VALID,76.6306,VALID,286.76,VALID,21.9021,VALID,129,VALID,0,
2015-09-13, 08:22:04,VALID,920.054,VALID,0,VALID,76.5238,VALID,293.099,VALID,22.0598,VALID,129,VALID,0,
2015-09-13, 08:23:04,VALID,920.052,VALID,0,VALID,75.7005,VALID,296.86,VALID,22.1379,VALID,129,VALID,0,
2015-09-13, 08:24:04,VALID,920.067,VALID,0,VALID,74.74,VALID,304.058,VALID,22.2159,VALID,129,VALID,0,
2015-09-13, 08:25:04,VALID,920.072,VALID,0,VALID,73.4592,VALID,308.034,VALID,22.255,VALID,129,VALID,0,
2015-09-13, 08:26:04,VALID,920.066,VALID,0,VALID,74.435,VALID,304.811,VALID,22.2567,VALID,129,VALID,0,
2015-09-13, 08:27:04,VALID,920.102,VALID,0,VALID,75.4185,VALID,301.91,VALID,22.294,VALID,129,VALID,0,
2015-09-13, 08:28:04,VALID,920.115,VALID,0,VALID,74.3436,VALID,307.604,VALID,22.4323,VALID,93,VALID,0,
2015-09-13, 08:29:04,VALID,920.156,VALID,0,VALID,74.4732,VALID,305.133,VALID,22.4891,VALID,93,VALID,0,
2015-09-13, 08:30:04,VALID,920.162,VALID,0,VALID,74.5799,VALID,299.976,VALID,22.5867,VALID,93,VALID,0,
2015-09-13, 08:31:04,VALID,920.195,VALID,0,VALID,73.3678,VALID,315.447,VALID,22.7623,VALID,93,VALID,0,
2015-09-13, 08:32:04,VALID,920.235,VALID,0,VALID,73.5965,VALID,329.2,VALID,22.9185,VALID,93,VALID,0,
2015-09-13, 08:33:04,VALID,920.26,VALID,0,VALID,72.613,VALID,337.258,VALID,22.9965,VALID,93,VALID,0,
2015-09-13, 08:34:04,VALID,920.269,VALID,0,VALID,73.383,VALID,338.762,VALID,23.1722,VALID,93,VALID,0,
2015-09-13, 08:35:04,VALID,920.297,VALID,0,VALID,71.5686,VALID,341.77,VALID,23.3088,VALID,94,VALID,0,
2015-09-13, 08:36:04,VALID,920.304,VALID,0,VALID,70.1659,VALID,343.167,VALID,23.5235,VALID,93,VALID,0,
2015-09-13, 08:37:04,VALID,920.308,VALID,0,VALID,68.9462,VALID,348.217,VALID,23.6602,VALID,94,VALID,0,
2015-09-13, 08:38:04,VALID,920.339,VALID,0,VALID,69.1901,VALID,348.861,VALID,23.7169,VALID,93,VALID,0,
2015-09-13, 08:39:04,VALID,920.353,VALID,0,VALID,68.9614,VALID,354.663,VALID,23.8554,VALID,93,VALID,0,
2015-09-13, 08:40:04,VALID,920.367,VALID,0,VALID,67.8636,VALID,354.341,VALID,24.0701,VALID,98,VALID,0,
2015-09-13, 08:41:04,VALID,920.356,VALID,0,VALID,69.7161,VALID,360.358,VALID,23.9139,VALID,129,VALID,0,
2015-09-13, 08:42:04,VALID,920.375,VALID,0,VALID,67.6654,VALID,363.473,VALID,23.6797,VALID,135,VALID,0,
2015-09-13, 08:43:04,VALID,920.376,VALID,0,VALID,70.1202,VALID,365.73,VALID,23.4046,VALID,135,VALID,0,
2015-09-13, 08:44:04,VALID,920.417,VALID,0,VALID,69.6247,VALID,369.06,VALID,23.2485,VALID,136,VALID,0,
2015-09-13, 08:45:04,VALID,920.379,VALID,0,VALID,70.852,VALID,367.556,VALID,23.1722,VALID,136,VALID,0,
2015-09-13, 08:46:04,VALID,920.387,VALID,0,VALID,72.5597,VALID,370.35,VALID,23.1119,VALID,135,VALID,0,
2015-09-13, 08:47:04,VALID,920.409,VALID,0,VALID,72.0718,VALID,376.044,VALID,23.2307,VALID,135,VALID,0,
2015-09-13, 08:48:04,VALID,920.426,VALID,0,VALID,70.5852,VALID,376.474,VALID,23.3461,VALID,135,VALID,0,
2015-09-13, 08:49:04,VALID,920.458,VALID,0,VALID,69.6933,VALID,379.912,VALID,23.4046,VALID,135,VALID,0,
2015-09-13, 08:50:04,VALID,920.43,VALID,0,VALID,70.1583,VALID,381.416,VALID,23.4437,VALID,135,VALID,0,
2015-09-13, 08:51:04,VALID,920.474,VALID,0,VALID,69.5332,VALID,380.342,VALID,23.543,VALID,135,VALID,0,
2015-09-13, 08:52:04,VALID,920.508,VALID,0,VALID,69.7238,VALID,388.507,VALID,23.4259,VALID,135,VALID,0,
2015-09-13, 08:53:04,VALID,920.512,VALID,0,VALID,70.0897,VALID,393.879,VALID,23.4064,VALID,135,VALID,0,
2015-09-13, 08:54:04,VALID,920.532,VALID,0,VALID,70.0363,VALID,396.78,VALID,23.307,VALID,135,VALID,0,
2015-09-13, 08:55:04,VALID,920.546,VALID,0,VALID,70.9206,VALID,397.103,VALID,23.3478,VALID,135,VALID,0,
2015-09-13, 08:56:04,VALID,920.531,VALID,0,VALID,71.439,VALID,397.962,VALID,23.3674,VALID,135,VALID,0,
2015-09-13, 08:57:04,VALID,920.559,VALID,0,VALID,72.4225,VALID,401.508,VALID,23.4454,VALID,135,VALID,0,
2015-09-13, 08:58:04,VALID,920.56,VALID,0,VALID,69.983,VALID,410.318,VALID,23.5412,VALID,135,VALID,0,
2015-09-13, 08:59:04,VALID,920.558,VALID,0,VALID,69.0758,VALID,413.434,VALID,23.4632,VALID,135,VALID,0,
2015-09-13, 09:00:04,VALID,920.585,VALID,0,VALID,70.6614,VALID,417.194,VALID,23.4241,VALID,135,VALID,0,
2015-09-13, 09:01:04,VALID,920.588,VALID,0,VALID,71.2484,VALID,416.012,VALID,23.4827,VALID,135,VALID,0,
2015-09-13, 09:02:04,VALID,920.572,VALID,0,VALID,70.4404,VALID,416.12,VALID,23.5217,VALID,135,VALID,0,
2015-09-13, 09:03:04,VALID,920.566,VALID,0,VALID,69.6704,VALID,410.533,VALID,23.5998,VALID,135,VALID,0,
2015-09-13, 09:04:04,VALID,920.563,VALID,0,VALID,69.1673,VALID,409.566,VALID,23.6193,VALID,135,VALID,0,
2015-09-13, 09:05:04,VALID,920.57,VALID,0,VALID,70.2879,VALID,414.293,VALID,23.5199,VALID,135,VALID,0,
2015-09-13, 09:06:04,VALID,920.616,VALID,0,VALID,70.5014,VALID,369.598,VALID,23.5412,VALID,135,VALID,0,
2015-09-13, 09:07:04,VALID,920.622,VALID,0,VALID,69.9982,VALID,381.416,VALID,23.5022,VALID,135,VALID,0,
2015-09-13, 09:08:04,VALID,920.629,VALID,0,VALID,70.7072,VALID,388.292,VALID,23.4827,VALID,135,VALID,0,
2015-09-13, 09:09:04,VALID,920.609,VALID,0,VALID,70.5166,VALID,359.606,VALID,23.4632,VALID,135,VALID,0,
2015-09-13, 09:10:04,VALID,920.62,VALID,0,VALID,68.443,VALID,355.415,VALID,23.5022,VALID,135,VALID,0,
2015-09-13, 09:11:04,VALID,920.566,VALID,0,VALID,68.4125,VALID,351.225,VALID,23.5217,VALID,135,VALID,0,
2015-09-13, 09:12:04,VALID,920.594,VALID,0,VALID,70.2955,VALID,366.052,VALID,23.6193,VALID,135,VALID,0,
2015-09-13, 09:13:04,VALID,920.611,VALID,0,VALID,70.9283,VALID,355.63,VALID,23.7755,VALID,135,VALID,0,
2015-09-13, 09:14:04,VALID,920.612,VALID,0,VALID,69.396,VALID,342.093,VALID,23.9512,VALID,135,VALID,0,
2015-09-13, 09:15:04,VALID,920.632,VALID,0,VALID,66.9412,VALID,352.622,VALID,23.834,VALID,135,VALID,0,
2015-09-13, 09:16:04,VALID,920.662,VALID,0,VALID,68.6489,VALID,387.863,VALID,23.6584,VALID,135,VALID,0,
2015-09-13, 09:17:04,VALID,920.67,VALID,0,VALID,70.8368,VALID,393.342,VALID,23.5767,VALID,135,VALID,0,
2015-09-13, 09:18:04,VALID,920.683,VALID,0,VALID,70.2803,VALID,434.922,VALID,23.7737,VALID,135,VALID,0,
2015-09-13, 09:19:04,VALID,920.676,VALID,0,VALID,69.6856,VALID,418.376,VALID,24.0292,VALID,135,VALID,0,
2015-09-13, 09:20:04,VALID,920.678,VALID,0,VALID,67.4291,VALID,398.929,VALID,24.2245,VALID,135,VALID,0,
2015-09-13, 09:21:04,VALID,920.693,VALID,0,VALID,66.865,VALID,401.293,VALID,24.3007,VALID,135,VALID,0,
2015-09-13, 09:23:04,VALID,920.719,VALID,0,VALID,67.1775,VALID,431.806,VALID,24.1073,VALID,135,VALID,0,
2015-09-13, 09:24:04,VALID,920.732,VALID,0,VALID,66.2322,VALID,444.054,VALID,24.0274,VALID,135,VALID,0,
2015-09-13, 09:25:04,VALID,920.689,VALID,0,VALID,66.7506,VALID,452.542,VALID,23.9707,VALID,135,VALID,0,
2015-09-13, 09:26:04,VALID,920.713,VALID,0,VALID,67.4749,VALID,463.071,VALID,24.0469,VALID,89,VALID,0,
2015-09-13, 09:27:04,VALID,920.718,VALID,0,VALID,68.039,VALID,472.526,VALID,24.0079,VALID,2,VALID,0,
2015-09-13, 09:28:04,VALID,920.7,VALID,0,VALID,67.8789,VALID,452.864,VALID,23.9884,VALID,2,VALID,0,
2015-09-13, 09:29:04,VALID,920.713,VALID,0,VALID,67.2538,VALID,419.128,VALID,23.9121,VALID,2,VALID,0,
2015-09-13, 09:30:04,VALID,920.703,VALID,0,VALID,69.4569,VALID,381.309,VALID,23.8127,VALID,2,VALID,0,
2015-09-13, 09:31:04,VALID,920.662,VALID,0,VALID,68.8776,VALID,417.946,VALID,23.7737,VALID,2,VALID,0,
2015-09-13, 09:32:04,VALID,920.685,VALID,0,VALID,69.6323,VALID,432.988,VALID,23.8127,VALID,2,VALID,0,
2015-09-13, 09:33:04,VALID,920.715,VALID,0,VALID,69.0529,VALID,443.732,VALID,23.8127,VALID,2,VALID,0,
2015-09-13, 09:34:04,VALID,920.685,VALID,0,VALID,69.0681,VALID,467.262,VALID,23.8322,VALID,2,VALID,0,
2015-09-13, 09:35:04,VALID,920.723,VALID,0,VALID,69.4112,VALID,473.171,VALID,23.8908,VALID,2,VALID,0,
2015-09-13, 09:36:04,VALID,920.717,VALID,0,VALID,68.8242,VALID,465.972,VALID,23.9298,VALID,2,VALID,0,
2015-09-13, 09:37:04,VALID,920.75,VALID,0,VALID,67.1547,VALID,482.733,VALID,23.9493,VALID,2,VALID,0,
2015-09-13, 09:38:04,VALID,920.764,VALID,0,VALID,66.8421,VALID,477.468,VALID,24.1055,VALID,2,VALID,0,
2015-09-13, 09:39:04,VALID,920.773,VALID,0,VALID,66.9565,VALID,480.907,VALID,24.3788,VALID,4,VALID,0,
2015-09-13, 09:40:04,VALID,920.743,VALID,0,VALID,66.0798,VALID,493.047,VALID,24.5935,VALID,47,VALID,0,
2015-09-13, 09:41:04,VALID,920.754,VALID,0,VALID,67.7798,VALID,499.924,VALID,24.6131,VALID,41,VALID,0,
2015-09-13, 09:42:04,VALID,920.76,VALID,0,VALID,67.0708,VALID,503.147,VALID,24.7321,VALID,14,VALID,0,
2015-09-13, 09:43:04,VALID,920.76,VALID,0,VALID,65.6224,VALID,512.494,VALID,24.9255,VALID,3,VALID,0,
2015-09-13, 09:44:04,VALID,920.721,VALID,0,VALID,65.5156,VALID,521.09,VALID,25.0407,VALID,351,VALID,0,
2015-09-13, 09:45:04,VALID,920.723,VALID,0,VALID,64.3264,VALID,528.61,VALID,25.2164,VALID,22,VALID,0,
2015-09-13, 09:46:04,VALID,920.732,VALID,0,VALID,64.273,VALID,532.908,VALID,25.4527,VALID,22,VALID,0,
2015-09-13, 09:47:04,VALID,920.751,VALID,0,VALID,65.0659,VALID,530.437,VALID,25.5503,VALID,56,VALID,0,
2015-09-13, 09:48:04,VALID,920.737,VALID,0,VALID,63.9605,VALID,502.502,VALID,25.5289,VALID,128,VALID,0,
2015-09-13, 09:49:04,VALID,920.7,VALID,0,VALID,64.1206,VALID,520.123,VALID,25.6265,VALID,128,VALID,0,
2015-09-13, 09:50:04,VALID,920.73,VALID,0,VALID,59.9048,VALID,522.164,VALID,25.6851,VALID,121,VALID,0.0375,
2015-09-13, 09:51:04,VALID,920.755,VALID,0,VALID,59.9277,VALID,523.346,VALID,25.5503,VALID,137,VALID,0,
2015-09-13, 09:52:04,VALID,920.699,VALID,0,VALID,58.8375,VALID,534.197,VALID,25.5308,VALID,134,VALID,0,
2015-09-13, 09:53:04,VALID,920.708,VALID,0,VALID,60.6748,VALID,529.04,VALID,25.4507,VALID,73,VALID,0.856641,
2015-09-13, 09:54:04,VALID,920.693,VALID,0,VALID,58.6317,VALID,534.627,VALID,25.3179,VALID,109,VALID,2.0668,
2015-09-13, 09:55:04,VALID,920.687,VALID,0,VALID,62.2757,VALID,546.983,VALID,25.1422,VALID,119,VALID,0.704687,
2015-09-13, 09:56:04,VALID,920.694,VALID,0,VALID,60.0801,VALID,556.438,VALID,25.1207,VALID,85,VALID,0.0417969,
2015-09-13, 09:57:04,VALID,920.638,VALID,0,VALID,61.7344,VALID,565.355,VALID,25.2183,VALID,56,VALID,0,
2015-09-13, 09:58:04,VALID,920.639,VALID,0,VALID,61.1932,VALID,566,VALID,25.3941,VALID,112,VALID,0.00429688,
2015-09-13, 09:59:04,VALID,920.641,VALID,0,VALID,60.5604,VALID,562.884,VALID,25.6284,VALID,102,VALID,0,
2015-09-13, 10:00:04,VALID,920.638,VALID,0,VALID,61.582,VALID,563.959,VALID,25.8237,VALID,153,VALID,0,
2015-09-13, 10:01:04,VALID,920.624,VALID,0,VALID,60.3241,VALID,573.091,VALID,25.9194,VALID,167,VALID,0.932813,
2015-09-13, 10:02:04,VALID,920.655,VALID,0,VALID,58.929,VALID,574.273,VALID,25.9214,VALID,181,VALID,1.36992,
2015-09-13, 10:03:04,VALID,920.667,VALID,0,VALID,57.6864,VALID,576.529,VALID,25.9409,VALID,180,VALID,0,
2015-09-13, 10:04:04,VALID,920.668,VALID,0,VALID,59.6075,VALID,573.843,VALID,25.9975,VALID,172,VALID,0,
2015-09-13, 10:05:04,VALID,920.63,VALID,0,VALID,59.4169,VALID,577.604,VALID,26.0776,VALID,196,VALID,0,
2015-09-13, 10:06:04,VALID,920.652,VALID,0,VALID,59.4017,VALID,580.934,VALID,26.2534,VALID,74,VALID,0.115234,
2015-09-13, 10:07:04,VALID,920.626,VALID,0,VALID,59.9887,VALID,577.281,VALID,26.3902,VALID,34,VALID,1.08906,
2015-09-13, 10:08:04,VALID,920.64,VALID,0,VALID,63.9605,VALID,575.777,VALID,26.3316,VALID,90,VALID,1.03008,
2015-09-13, 10:09:04,VALID,920.665,VALID,0,VALID,63.1448,VALID,574.81,VALID,26.2514,VALID,121,VALID,0,
2015-09-13, 10:10:04,VALID,920.643,VALID,0,VALID,61.6963,VALID,576.422,VALID,26.3491,VALID,252,VALID,0.942187,
2015-09-13, 10:11:04,VALID,920.653,VALID,0,VALID,60.5833,VALID,577.819,VALID,26.273,VALID,265,VALID,0,
2015-09-13, 10:12:04,VALID,920.628,VALID,0,VALID,62.8017,VALID,582.224,VALID,26.1362,VALID,266,VALID,0,
2015-09-13, 10:13:04,VALID,920.617,VALID,0,VALID,63.1981,VALID,586.306,VALID,25.9409,VALID,259,VALID,0,
2015-09-13, 10:14:04,VALID,920.62,VALID,0,VALID,61.9784,VALID,592.216,VALID,25.978,VALID,177,VALID,0,
2015-09-13, 10:15:04,VALID,920.591,VALID,0,VALID,61.2237,VALID,593.935,VALID,26.1167,VALID,209,VALID,0.08125,
2015-09-13, 10:16:04,VALID,920.596,VALID,0,VALID,58.5478,VALID,598.447,VALID,26.1948,VALID,216,VALID,0,
2015-09-13, 10:17:04,VALID,920.56,VALID,0,VALID,58.1133,VALID,598.984,VALID,26.273,VALID,230,VALID,0,
2015-09-13, 10:18:04,VALID,920.554,VALID,0,VALID,60.7281,VALID,605.109,VALID,26.2124,VALID,235,VALID,0.348828,
2015-09-13, 10:19:04,VALID,920.541,VALID,0,VALID,63.2591,VALID,610.588,VALID,26.1928,VALID,235,VALID,0,
2015-09-13, 10:20:04,VALID,920.517,VALID,0,VALID,61.3151,VALID,610.158,VALID,26.2144,VALID,183,VALID,0,
2015-09-13, 10:21:04,VALID,920.534,VALID,0,VALID,61.582,VALID,613.274,VALID,26.271,VALID,184,VALID,0,
2015-09-13, 10:22:04,VALID,920.519,VALID,0,VALID,59.4093,VALID,618.109,VALID,26.4683,VALID,184,VALID,0,
2015-09-13, 10:23:04,VALID,920.511,VALID,0,VALID,56.3675,VALID,614.886,VALID,26.4663,VALID,166,VALID,0,
2015-09-13, 10:24:04,VALID,920.518,VALID,0,VALID,58.0599,VALID,616.282,VALID,26.4468,VALID,167,VALID,0,
2015-09-13, 10:25:04,VALID,920.529,VALID,0,VALID,59.2721,VALID,618.002,VALID,26.5835,VALID,222,VALID,0,
2015-09-13, 10:26:04,VALID,920.508,VALID,0,VALID,58.8223,VALID,615.423,VALID,26.4858,VALID,194,VALID,0.0289063,
2015-09-13, 10:27:04,VALID,920.491,VALID,0,VALID,59.8819,VALID,614.134,VALID,26.3686,VALID,222,VALID,0,
2015-09-13, 10:28:04,VALID,920.476,VALID,0,VALID,59.8743,VALID,621.44,VALID,26.271,VALID,222,VALID,0,
2015-09-13, 10:29:04,VALID,920.491,VALID,0,VALID,61.2389,VALID,624.341,VALID,26.2514,VALID,225,VALID,0,
2015-09-13, 10:30:04,VALID,920.49,VALID,0,VALID,61.0636,VALID,625.2,VALID,26.3491,VALID,220,VALID,0,
2015-09-13, 10:31:04,VALID,920.46,VALID,0,VALID,60.3165,VALID,626.274,VALID,26.3491,VALID,224,VALID,0,
2015-09-13, 10:32:04,VALID,920.422,VALID,0,VALID,59.8667,VALID,630.572,VALID,26.3686,VALID,218,VALID,0,
2015-09-13, 10:33:04,VALID,920.421,VALID,0,VALID,60.7891,VALID,637.986,VALID,26.3491,VALID,243,VALID,0,
2015-09-13, 10:34:04,VALID,920.368,VALID,0,VALID,61.0636,VALID,639.06,VALID,26.1928,VALID,247,VALID,0,
2015-09-13, 10:35:04,VALID,920.371,VALID,0,VALID,61.7116,VALID,648.945,VALID,26.2124,VALID,247,VALID,0,
2015-09-13, 10:36:04,VALID,920.346,VALID,0,VALID,62.0622,VALID,644.217,VALID,26.3686,VALID,244,VALID,0,
2015-09-13, 10:37:04,VALID,920.346,VALID,0,VALID,63.0152,VALID,648.085,VALID,26.4272,VALID,243,VALID,0,
2015-09-13, 10:38:04,VALID,920.347,VALID,0,VALID,61.6734,VALID,652.275,VALID,26.7202,VALID,271,VALID,0,
2015-09-13, 10:39:04,VALID,920.356,VALID,0,VALID,59.9429,VALID,643.573,VALID,26.8179,VALID,309,VALID,0,
2015-09-13, 10:40:04,VALID,920.385,VALID,0,VALID,60.4994,VALID,639.812,VALID,26.9721,VALID,306,VALID,0,
2015-09-13, 10:41:04,VALID,920.384,VALID,0,VALID,59.6456,VALID,635.514,VALID,27.1089,VALID,309,VALID,0.112891,
2015-09-13, 10:42:04,VALID,920.383,VALID,0,VALID,59.6609,VALID,628.423,VALID,26.8745,VALID,260,VALID,0.209766,
2015-09-13, 10:43:04,VALID,920.379,VALID,0,VALID,60.3927,VALID,632.828,VALID,26.6791,VALID,224,VALID,0,
2015-09-13, 10:44:04,VALID,920.367,VALID,0,VALID,60.812,VALID,628.746,VALID,26.5249,VALID,251,VALID,1.22109,
2015-09-13, 10:45:04,VALID,920.344,VALID,0,VALID,61.7344,VALID,620.365,VALID,26.2514,VALID,249,VALID,0.748828,
2015-09-13, 10:46:04,VALID,920.374,VALID,0,VALID,62.7178,VALID,606.828,VALID,26.0171,VALID,254,VALID,0.278125,
2015-09-13, 10:47:04,VALID,920.377,VALID,0,VALID,64.3797,VALID,615.96,VALID,25.9174,VALID,254,VALID,0,
2015-09-13, 10:48:04,VALID,920.368,VALID,0,VALID,63.4954,VALID,627.027,VALID,25.8784,VALID,251,VALID,0.572656,
2015-09-13, 10:49:04,VALID,920.372,VALID,0,VALID,63.3963,VALID,627.349,VALID,25.8589,VALID,247,VALID,0.889063,
2015-09-13, 10:50:04,VALID,920.366,VALID,0,VALID,64.4179,VALID,649.159,VALID,25.976,VALID,260,VALID,0,
2015-09-13, 10:51:04,VALID,920.371,VALID,0,VALID,62.5349,VALID,648.192,VALID,26.1127,VALID,260,VALID,0.628516,
2015-09-13, 10:52:04,VALID,920.382,VALID,0,VALID,62.5044,VALID,653.242,VALID,26.019,VALID,248,VALID,0.867969,
2015-09-13, 10:53:04,VALID,920.369,VALID,0,VALID,63.7851,VALID,656.68,VALID,25.9194,VALID,251,VALID,0,
2015-09-13, 10:54:04,VALID,920.373,VALID,0,VALID,63.1371,VALID,665.49,VALID,25.9585,VALID,263,VALID,0,
2015-09-13, 10:55:04,VALID,920.361,VALID,0,VALID,61.5667,VALID,671.077,VALID,26.0366,VALID,264,VALID,0,